Location: Quebec
(46.8000°N, 71.2500°W)
Time: 19:28:47
(UTC-05:00)

Vanguard 1 - All Passes

Search period start: 13 December 2017 00:00
Search period end: 23 December 2017 00:00
Orbit: 650 x 3833 km, 34.2° (Epoch: 10 December)

Date Brightness Start Highest point End Pass type
(mag) Time Alt. Az. Time Alt. Az. Time Alt. Az.
13 Dec - 05:47:33 10° SSE 05:59:20 17° SE 06:09:39 10° ESE visible
13 Dec - 08:03:34 10° SSW 08:22:21 36° SSE 08:35:20 10° E daylight
13 Dec - 10:27:21 10° WSW 10:45:24 48° S 10:55:53 10° ESE daylight
13 Dec - 12:53:41 10° W 13:06:47 38° SSW 13:14:23 10° SE daylight
13 Dec - 15:21:38 10° WSW 15:25:40 13° SW 15:28:57 10° SSW daylight
14 Dec - 06:04:53 10° S 06:20:06 22° SE 06:32:50 10° E visible
14 Dec - 08:23:43 10° SW 08:43:24 42° SSE 08:56:32 10° E daylight
14 Dec - 10:48:30 10° WSW 11:06:23 49° S 11:16:40 10° ESE daylight
14 Dec - 13:15:12 10° W 13:27:24 34° SSW 13:34:42 10° SSE daylight
15 Dec - 06:23:25 10° SSW 06:40:56 28° SE 06:55:04 10° E visible
15 Dec - 08:44:12 10° SW 09:04:28 46° SSE 09:17:36 10° E daylight
15 Dec - 11:09:47 10° WSW 11:27:20 49° S 11:37:22 10° ESE daylight
15 Dec - 13:36:51 10° W 13:47:52 28° SW 13:54:48 10° SSE daylight
16 Dec - 04:31:03 10° SSE 04:39:08 13° SE 04:46:53 10° ESE visible
16 Dec - 06:42:42 10° SSW 07:01:48 34° SSE 07:16:47 10° E visible
16 Dec - 09:04:58 10° WSW 09:25:32 50° S 09:38:36 10° ESE daylight
16 Dec - 11:31:10 10° W 11:48:13 47° SSW 11:57:59 10° SE daylight
16 Dec - 13:58:44 10° W 14:08:14 23° SW 14:14:35 10° S daylight
17 Dec - 04:46:32 10° S 04:59:40 19° SE 05:11:54 10° E visible
17 Dec - 07:02:29 10° SSW 07:22:45 40° SSE 07:38:13 10° E daylight
17 Dec - 09:25:58 10° WSW 09:46:37 52° S 09:59:28 10° ESE daylight
17 Dec - 11:52:38 10° W 12:08:59 43° SSW 12:18:29 10° SE daylight
17 Dec - 14:21:03 10° W 14:28:26 18° SW 14:33:52 10° S daylight
18 Dec - 05:04:13 10° S 05:20:16 24° SE 05:34:57 10° E visible
18 Dec - 07:22:40 10° SW 07:43:46 45° SSE 07:59:28 10° E daylight
18 Dec - 09:47:07 10° WSW 10:07:41 53° S 10:20:18 10° ESE daylight
18 Dec - 12:14:12 10° W 12:29:38 38° SSW 12:38:49 10° SE daylight
18 Dec - 14:44:28 10° WSW 14:48:32 12° SW 14:51:58 10° SSW daylight
19 Dec - 05:22:56 10° SSW 05:40:56 30° SE 05:57:09 10° E visible
19 Dec - 07:43:10 10° SW 08:04:51 49° SSE 08:20:35 10° E daylight
19 Dec - 10:08:25 10° WSW 10:28:42 52° S 10:41:02 10° ESE daylight
19 Dec - 12:35:54 10° W 12:50:10 33° SW 12:58:57 10° SSE daylight
20 Dec - 03:30:39 10° SSE 03:39:25 14° SE 03:48:14 10° ESE visible
20 Dec - 05:42:18 10° SSW 06:01:43 36° SSE 06:18:54 10° E visible
20 Dec - 08:03:55 10° WSW 08:25:57 53° S 08:41:36 10° E daylight
20 Dec - 10:29:48 10° W 10:49:39 50° SSW 11:01:40 10° SE daylight
20 Dec - 12:57:46 10° W 13:10:32 27° SW 13:18:48 10° SSE daylight
21 Dec - 03:46:37 10° SSE 03:59:44 19° SE 04:13:03 10° E visible
21 Dec - 06:02:08 10° SSW 06:22:34 42° SSE 06:40:23 10° E visible
21 Dec - 08:24:53 10° WSW 08:47:05 55° S 09:02:33 10° ESE daylight
21 Dec - 10:51:17 10° W 11:10:30 47° SSW 11:22:12 10° SE daylight
21 Dec - 13:19:58 10° W 13:30:44 22° SW 13:38:13 10° S daylight
22 Dec - 04:04:30 10° S 04:20:09 25° SE 04:36:05 10° E visible
22 Dec - 06:22:19 10° SW 06:43:32 47° SSE 07:01:41 10° E visible
22 Dec - 08:46:00 10° WSW 09:08:13 56° S 09:23:25 10° ESE daylight
22 Dec - 11:12:50 10° W 11:31:13 42° SSW 11:42:34 10° SE daylight
22 Dec - 13:42:51 10° W 13:50:49 16° SW 13:56:54 10° SSW daylight
